Погода в Нага Сити

Филиппины     13°35′53″N   123°11′57″E
темп.,
°C
ветер,
м/с
пор.,
м/с
влажн.,
%
обл.,
%
осадки,
мм/ч
давл.,
гПа
погр.,
м
25 июля, вс
вс2523:00+26юз6138890 0.8 1008952
02:00+26юз61389100 2.1 1006924
05:00+26юз61289100 1.2 1006907
08:00+27юз61288100 3.4 10071014
11:00+27юз61287100 4.5 10071040
14:00+28юз71083100 8.8 10071069
17:00+27юз5118899 2.4 1006691
20:00+27юз41086100 3.2 1007476
26 июля, пн
пн2623:00+27ююз498695 0.1 1008512
02:00+27юз5108752 0.3 1006655
05:00+26юз5108793 0.1 1005662
08:00+28юз5983100 0.4 1006909
11:00+30юз797496 0.3 10061219
14:00+30юз697585 0.8 10041200
17:00+28юз51084100 0.9 1004780
20:00+27юз51184100 1.3 1006661
27 июля, вт
вт2723:00+27юз51183100 0.4 1006809
02:00+26юз51287100 1.1 1004869
05:00+26юз51288100 0.9 1004853
08:00+28юз6128039 1.3 10051149
11:00+30юз7117296 0.4 10041313
14:00+29юз7107894 1.4 10031153
17:00+28юз6118059 2.1 1004894
20:00+27юз5128493 2.9 1006814
28 июля, ср
ср2823:00+27юз61381100 0.1 1006964
02:00+27ююз5138499 0.4 10051011
05:00+27ююз51281100 0.1 1005851
08:00+28ююз51275100 0.3 10071284
11:00+31юз6126482 0.2 10071562
14:00+31юз7126551 0.4 10051533
17:00+28юз5117578 0.2 10061074
20:00+27юз41180100 0.3 1007815
29 июля, чт
чт2923:00+27юз41080100 0.1 1008790
02:00+27ююз41181100 0.1 1006906
05:00+27ююз41180100 0.0 1007818
08:00+29ююз51176100 0.0 10071179
11:00+31юз61166100 0.0 10071376
14:00+30юз61069100 0.1 10061410
17:00+28юз41081100 0.7 1007827
20:00+27ююз3983100 1.4 1008465